Regional Weather Roundup
Issued by NWS

Home | Current Version | Previous Version | Text Only | Print | Product List | Glossary Off
Versions: 1 2 3 4 5 6 7 8 9 10 11 12 13 14 15 16 17 18 19 20 21 22 23 24 25 26 27 28 29 30 31 32 33 34 35 36 37 38 39 40 41 42 43 44 45 46 47 48 49 50

000
ASUS43 KFSD 230010
RWRSD

WEATHER ROUNDUP FOR SOUTH DAKOTA
NATIONAL WEATHER SERVICE SIOUX FALLS SD
700 PM CDT FRI MAY 22 2015

NOTE: "FAIR" INDICATES FEW OR NO CLOUDS BELOW 12,000 FEET WITH NO
SIGNIFICANT WEATHER AND/OR OBSTRUCTIONS TO VISIBILITY.


SDZ001>005-009-010-012>017-230100-
NORTHWEST AND NORTH CENTRAL SOUTH DAKOTA

CITY           SKY/WX    TMP DP  RH WIND       PRES   REMARKS
BUFFALO          N/A     64  41  42 SE22      29.97F
FAITH            N/A     63  32  31 S22       30.07S
MOBRIDGE       PTSUNNY   71  38  29 S17       30.06S
$$

SDZ012>016-024>037-041>051-057-063-072>074-230100-
SOUTHWEST AND SOUTH CENTRAL SOUTH DAKOTA

CITY           SKY/WX    TMP DP  RH WIND       PRES   REMARKS
RAPID CTY ARPT CLOUDY    57  42  57 S16       30.07R
PIERRE         CLOUDY    64  40  41 S18       30.10S
CUSTER         CLOUDY    44  39  82 SE8       30.08S
ELLSWORTH AFB  CLOUDY    58  44  58 S18G24    30.05S
PHILIP         CLOUDY    59  42  53 S18       30.10R
PINE RIDGE     CLOUDY    50  42  74 SE12      30.08F
SPEARFISH      FAIR      57  39  51 SE14      30.04F
WINNER         CLOUDY    57  41  55 S13       30.15F
$$

SDZ004>011-016>023-039-040-230100-
NORTHEAST SOUTH DAKOTA

CITY           SKY/WX    TMP DP  RH WIND       PRES   REMARKS
ABERDEEN       CLOUDY    74  38  27 S10       30.09F
WATERTOWN      PTSUNNY   70  37  29 S9        30.12F
BROOKINGS      CLOUDY    72  34  25 S7        30.14S
SISSETON         N/A     74  27  17 CALM      30.12S
$$

SDZ017-020-022-023-036>040-048>070-230100-
SOUTHEAST SOUTH DAKOTA

CITY           SKY/WX    TMP DP  RH WIND       PRES   REMARKS
SIOUX FALLS    CLOUDY    66  40  38 SW13G24   30.15S
HURON          CLOUDY    69  41  36 S8        30.11F
CHAMBERLAIN    CLOUDY    58  43  57 S18G24    30.16R
MITCHELL       CLOUDY    64  43  46 SW23      30.16R
YANKTON        CLOUDY    61  41  48 S14G22    30.18F
$$

ABBREVIATIONS USED IN REMARKS
   TC - TEMPERATURE IN CELSIUS
  WCI - WIND CHILL INDEX
   HX - HEAT INDEX
  VSB - VISIBILITY



USA.gov is the U.S. government's official web portal to all federal, state and local government web resources and services.